Change the Weather History Date:

Sunday, October 20, 2013

  Actual Average Record
Temperature  
Mean Temperature 64 °F -  
Max Temperature 83 °F 74 °F 89 °F (2003)
Min Temperature 44 °F 49 °F 41 °F (1996)
Degree Days  
Heating Degree Days 2    
Growing Degree Days 14 (Base 50)    
Moisture  
Dew Point 43 °F    
Average Humidity 54    
Maximum Humidity 80    
Minimum Humidity 21    
Precipitation  
Precipitation 0.00 in - - ()
Sea Level Pressure  
Sea Level Pressure 29.95 in    
Wind  
Wind Speed 7 mph (WSW)    
Max Wind Speed 16 mph    
Max Gust Speed -    
Visibility 10 miles    
Events      
Averages and records for this station are not official NWS values.
T = Trace of Precipitation, MM = Missing Value Source: NWS Daily Summary

Daily Weather History Graph

Daily Weather History Graph

Search for Another Location

Airport or City:

Trip Planner

Search our weather history database for the weather conditions in past years. The results will help you decide how hot, cold, wet, or windy it might be!

Date:

Astronomy

Oct. 20, 2013 Rise Set
Actual Time 7:21 AM PDT 6:22 PM PDT
Civil Twilight 6:55 AM PDT 6:49 PM PDT
Nautical Twilight 6:24 AM PDT 7:20 PM PDT
Astronomical Twilight 5:53 AM PDT 7:50 PM PDT
Moon 7:36 PM PDT (10/20) 9:03 AM PDT (10/20)
Length of Visible Light 11h 54m
Length of Day
11h 00m
Waning Gibbous, 97% of the Moon is Illuminated
Oct 20
Waning Gibbous
Oct 26
Last Quarter
Nov 3
New
Nov 9
First Quarter
Nov 17
Full

Hourly Weather History & Observations

Time (PDT) Temp. Windchill Dew Point Humidity Pressure Visibility Wind Dir Wind Speed Gust Speed Precip Events Conditions
12:58 AM 51.6 °F - 43.0 °F 72% 30.00 in 4.0 mi SW 8.1 mph - N/A   Haze
1:58 AM 54.0 °F - 41.7 °F 63% 30.00 in 4.0 mi West 3.5 mph - N/A   Haze
2:58 AM 49.5 °F - 42.1 °F 76% 30.00 in 10.0 mi North 3.5 mph - N/A   Clear
3:58 AM 46.2 °F - 39.9 °F 79% 29.99 in 10.0 mi NW 2.3 mph - N/A   Clear
4:58 AM 47.5 °F - 39.4 °F 73% 29.99 in 10.0 mi West 2.3 mph - N/A   Clear
5:58 AM 46.4 °F 45.2 °F 39.4 °F 77% 29.99 in 10.0 mi WSW 3.5 mph - N/A   Clear
6:58 AM 44.4 °F 42.0 °F 37.6 °F 77% 30.00 in 10.0 mi WSW 4.6 mph - N/A   Clear
7:58 AM 47.8 °F - 42.1 °F 80% 30.01 in 10.0 mi SW 5.8 mph - N/A   Clear
8:58 AM 58.3 °F - 47.8 °F 68% 30.02 in 10.0 mi WSW 4.6 mph - N/A   Clear
9:58 AM 64.8 °F - 45.5 °F 50% 30.02 in 10.0 mi SSW 4.6 mph - N/A   Clear
10:58 AM 69.1 °F - 42.4 °F 38% 30.01 in 10.0 mi Variable 1.2 mph - N/A   Clear
11:58 AM 72.7 °F - 41.9 °F 33% 30.00 in 10.0 mi Variable 2.3 mph - N/A   Clear
12:58 PM 76.8 °F - 41.0 °F 28% 29.97 in 10.0 mi Variable 3.5 mph - N/A   Clear
1:58 PM 80.8 °F - 39.0 °F 22% 29.94 in 10.0 mi SW 5.8 mph - N/A   Clear
2:58 PM 83.1 °F - 40.3 °F 22% 29.92 in 10.0 mi WSW 5.8 mph - N/A   Clear
3:58 PM 82.6 °F - 42.8 °F 25% 29.90 in 10.0 mi WSW 9.2 mph - N/A   Clear
4:58 PM 81.9 °F - 38.1 °F 21% 29.89 in 10.0 mi SW 12.7 mph - N/A   Clear
5:58 PM 76.6 °F - 45.1 °F 33% 29.88 in 10.0 mi SW 12.7 mph - N/A   Clear
6:58 PM 68.7 °F - 46.6 °F 45% 29.88 in 10.0 mi SW 12.7 mph - N/A   Clear
7:58 PM 64.0 °F - 47.1 °F 54% 29.89 in 10.0 mi SW 12.7 mph - N/A   Clear
8:58 PM 61.0 °F - 46.6 °F 59% 29.89 in 10.0 mi SW 15.0 mph - N/A   Clear
9:58 PM 59.0 °F - 46.6 °F 63% 29.90 in 10.0 mi SW 15.0 mph - N/A   Clear
10:58 PM 57.7 °F - 47.1 °F 68% 29.90 in 10.0 mi SW 15.0 mph - N/A   Clear
11:58 PM 55.2 °F - 48.4 °F 78% 29.89 in 10.0 mi SW 16.1 mph - N/A   Clear